When you browse on this site, cookies collect data to enhance your experience and personalize the content and advertising you see.
Visit our Privacy Policy to learn more. By continuing to use the site, you agree to this use of cookies and data.
  • In Schweiz
  • Länderverzeichnis
  • Für 7 Tage
  • Wassertemperatur
  • Wetterkarte
  • Widgets
  • user-avatar
    Anmelden

    Stündliche Wetter Chelmsford

    Heute, 23 September, Montag

    Zeit Temperatur Niederschläge Wind Luftdruck Luftfeuchtigkeit
    00:00 +14°C° 0 mm 4 m/S 752 mmHg 86%
    01:00 +14°C° 0 mm 4 m/S 752 mmHg 88%
    02:00 +14°C° 0 mm 4 m/S 752 mmHg 89%
    03:00 +14°C° 0 mm 4 m/S 752 mmHg 91%
    04:00 +13°C° 0 mm 4 m/S 753 mmHg 91%
    05:00 +13°C° 0 mm 4 m/S 753 mmHg 92%
    06:00 +13°C° 0 mm 4 m/S 754 mmHg 92%
    07:00 +14°C° 0 mm 4 m/S 755 mmHg 85%
    08:00 +15°C° 0 mm 5 m/S 755 mmHg 77%
    09:00 +16°C° 0 mm 5 m/S 755 mmHg 69%
    10:00 +17°C° 0 mm 5 m/S 755 mmHg 64%
    11:00 +19°C° 0 mm 5 m/S 755 mmHg 59%
    12:00 +20°C° 0 mm 5 m/S 756 mmHg 53%
    13:00 +20°C° 0.1 mm 6 m/S 755 mmHg 54%
    14:00 +20°C° 0.1 mm 6 m/S 755 mmHg 55%
    15:00 +20°C° 0.1 mm 6 m/S 755 mmHg 56%
    16:00 +19°C° 0.3 mm 6 m/S 755 mmHg 64%
    17:00 +17°C° 0.3 mm 6 m/S 755 mmHg 72%
    18:00 +16°C° 0.3 mm 5 m/S 755 mmHg 80%
    19:00 +16°C° 0.5 mm 6 m/S 754 mmHg 82%
    20:00 +16°C° 0.5 mm 7 m/S 754 mmHg 84%
    21:00 +16°C° 0.5 mm 7 m/S 754 mmHg 86%
    22:00 +16°C° 0.3 mm 7 m/S 754 mmHg 87%
    23:00 +16°C° 0.3 mm 6 m/S 753 mmHg 88%

    Morgen, 24 September, Dienstag

    Zeit Temperatur Niederschläge Wind Luftdruck Luftfeuchtigkeit
    00:00 +16°C° 0.3 mm 6 m/S 753 mmHg 90%
    01:00 +16°C° 0.1 mm 6 m/S 752 mmHg 90%
    02:00 +17°C° 0.1 mm 6 m/S 752 mmHg 91%
    03:00 +17°C° 0.1 mm 6 m/S 751 mmHg 91%
    04:00 +17°C° 0.2 mm 6 m/S 751 mmHg 91%
    05:00 +17°C° 0.2 mm 6 m/S 750 mmHg 90%
    06:00 +17°C° 0.2 mm 6 m/S 750 mmHg 90%
    07:00 +17°C° 0.7 mm 7 m/S 749 mmHg 89%
    08:00 +17°C° 0.7 mm 7 m/S 749 mmHg 88%
    09:00 +17°C° 0.7 mm 8 m/S 748 mmHg 87%
    10:00 +16°C° 2.5 mm 8 m/S 748 mmHg 88%
    11:00 +16°C° 2.5 mm 7 m/S 747 mmHg 88%
    12:00 +16°C° 2.5 mm 7 m/S 747 mmHg 88%
    13:00 +17°C° 1.7 mm 6 m/S 747 mmHg 82%
    14:00 +19°C° 1.7 mm 6 m/S 747 mmHg 76%
    15:00 +20°C° 1.7 mm 5 m/S 747 mmHg 70%
    16:00 +19°C° 0.3 mm 5 m/S 747 mmHg 72%
    17:00 +17°C° 0.3 mm 5 m/S 747 mmHg 74%
    18:00 +16°C° 0.3 mm 5 m/S 747 mmHg 75%
    19:00 +15°C° 0 mm 5 m/S 747 mmHg 78%
    20:00 +15°C° 0 mm 5 m/S 748 mmHg 80%
    21:00 +14°C° 0 mm 5 m/S 748 mmHg 82%
    22:00 +14°C° 0 mm 5 m/S 748 mmHg 82%
    23:00 +14°C° 0 mm 5 m/S 748 mmHg 82%

    übermorgen, 25 September, Mittwoch

    Zeit Temperatur Niederschläge Wind Luftdruck Luftfeuchtigkeit
    00:00 +15°C° 0 mm 5 m/S 747 mmHg 82%
    01:00 +15°C° 0.4 mm 5 m/S 747 mmHg 84%
    02:00 +15°C° 0.4 mm 5 m/S 747 mmHg 86%
    03:00 +15°C° 0.4 mm 6 m/S 746 mmHg 88%
    04:00 +14°C° 0.1 mm 5 m/S 746 mmHg 88%
    05:00 +14°C° 0.1 mm 5 m/S 746 mmHg 89%
    06:00 +14°C° 0.1 mm 4 m/S 745 mmHg 89%
    07:00 +14°C° 0.3 mm 4 m/S 746 mmHg 89%
    08:00 +14°C° 0.3 mm 4 m/S 746 mmHg 89%
    09:00 +15°C° 0.3 mm 4 m/S 746 mmHg 88%
    10:00 +17°C° 0.1 mm 4 m/S 746 mmHg 84%
    11:00 +18°C° 0.1 mm 4 m/S 746 mmHg 80%
    12:00 +19°C° 0.1 mm 4 m/S 746 mmHg 76%
    13:00 +19°C° 0.2 mm 4 m/S 747 mmHg 75%
    14:00 +19°C° 0.2 mm 4 m/S 747 mmHg 74%
    15:00 +20°C° 0.2 mm 4 m/S 747 mmHg 73%
    16:00 +19°C° 0.1 mm 4 m/S 748 mmHg 76%
    17:00 +18°C° 0.1 mm 4 m/S 748 mmHg 80%
    18:00 +17°C° 0.1 mm 4 m/S 748 mmHg 84%
    19:00 +17°C° 0 mm 4 m/S 749 mmHg 85%
    20:00 +15°C° 0 mm 4 m/S 749 mmHg 87%
    21:00 +15°C° 0 mm 4 m/S 750 mmHg 89%
    22:00 +14°C° 0 mm 4 m/S 750 mmHg 89%
    23:00 +14°C° 0 mm 4 m/S 750 mmHg 89%

    26 September, Donnerstag

    Zeit Temperatur Niederschläge Wind Luftdruck Luftfeuchtigkeit
    00:00 +14°C° 0 mm 4 m/S 750 mmHg 90%
    01:00 +14°C° 0.1 mm 4 m/S 750 mmHg 91%
    02:00 +15°C° 0.1 mm 4 m/S 750 mmHg 92%
    03:00 +15°C° 0.1 mm 4 m/S 750 mmHg 93%
    04:00 +16°C° 0.5 mm 5 m/S 750 mmHg 92%
    05:00 +16°C° 0.5 mm 5 m/S 750 mmHg 92%
    06:00 +16°C° 0.5 mm 5 m/S 750 mmHg 91%
    07:00 +17°C° 0.2 mm 5 m/S 750 mmHg 89%
    08:00 +17°C° 0.2 mm 6 m/S 751 mmHg 86%
    09:00 +17°C° 0.2 mm 6 m/S 751 mmHg 83%
    10:00 +17°C° 0.3 mm 6 m/S 751 mmHg 85%
    11:00 +17°C° 0.3 mm 6 m/S 751 mmHg 86%
    12:00 +17°C° 0.3 mm 5 m/S 751 mmHg 87%
    13:00 +17°C° 0.3 mm 6 m/S 751 mmHg 81%
    14:00 +19°C° 0.3 mm 6 m/S 751 mmHg 75%
    15:00 +19°C° 0.3 mm 6 m/S 751 mmHg 69%
    16:00 +17°C° 0.1 mm 5 m/S 751 mmHg 71%
    17:00 +16°C° 0.1 mm 5 m/S 751 mmHg 74%
    18:00 +15°C° 0.1 mm 4 m/S 752 mmHg 77%
    19:00 +15°C° 0.2 mm 4 m/S 752 mmHg 77%
    20:00 +15°C° 0.2 mm 5 m/S 752 mmHg 77%
    21:00 +14°C° 0.2 mm 5 m/S 753 mmHg 76%
    22:00 +14°C° 0 mm 5 m/S 753 mmHg 78%
    23:00 +13°C° 0 mm 5 m/S 753 mmHg 79%

    27 September, Freitag

    Zeit Temperatur Niederschläge Wind Luftdruck Luftfeuchtigkeit
    00:00 +12°C° 0 mm 4 m/S 753 mmHg 81%
    01:00 +12°C° 0 mm 4 m/S 753 mmHg 81%
    02:00 +12°C° 0 mm 4 m/S 753 mmHg 81%
    03:00 +12°C° 0 mm 5 m/S 752 mmHg 82%
    04:00 +12°C° 0 mm 4 m/S 752 mmHg 83%
    05:00 +12°C° 0 mm 4 m/S 752 mmHg 84%
    06:00 +12°C° 0 mm 4 m/S 752 mmHg 85%
    07:00 +13°C° 0 mm 5 m/S 752 mmHg 79%
    08:00 +14°C° 0 mm 6 m/S 752 mmHg 73%
    09:00 +15°C° 0 mm 7 m/S 752 mmHg 67%
    10:00 +16°C° 0 mm 7 m/S 752 mmHg 65%
    11:00 +17°C° 0 mm 7 m/S 752 mmHg 62%
    12:00 +18°C° 0 mm 7 m/S 752 mmHg 59%
    13:00 +17°C° 0.2 mm 7 m/S 752 mmHg 61%
    14:00 +17°C° 0.2 mm 7 m/S 752 mmHg 64%
    15:00 +16°C° 0.2 mm 8 m/S 752 mmHg 66%
    16:00 +16°C° 0.1 mm 7 m/S 752 mmHg 68%
    17:00 +15°C° 0.1 mm 7 m/S 752 mmHg 69%
    18:00 +15°C° 0.1 mm 6 m/S 752 mmHg 71%
    19:00 +14°C° 0 mm 6 m/S 752 mmHg 73%
    20:00 +14°C° 0 mm 6 m/S 752 mmHg 74%
    21:00 +13°C° 0 mm 6 m/S 752 mmHg 76%
    22:00 +13°C° 0 mm 6 m/S 752 mmHg 77%
    23:00 +13°C° 0 mm 6 m/S 752 mmHg 77%

    28 September, Samstag

    Zeit Temperatur Niederschläge Wind Luftdruck Luftfeuchtigkeit
    00:00 +11°C° 0 mm 6 m/S 752 mmHg 78%
    01:00 +11°C° 0.1 mm 7 m/S 752 mmHg 78%
    02:00 +11°C° 0.1 mm 7 m/S 752 mmHg 78%
    03:00 +12°C° 0.1 mm 7 m/S 752 mmHg 78%
    04:00 +11°C° 0 mm 7 m/S 752 mmHg 79%
    05:00 +11°C° 0 mm 7 m/S 752 mmHg 80%
    06:00 +11°C° 0 mm 7 m/S 752 mmHg 81%
    07:00 +12°C° 0 mm 7 m/S 753 mmHg 77%
    08:00 +13°C° 0 mm 8 m/S 753 mmHg 73%
    09:00 +15°C° 0 mm 8 m/S 753 mmHg 69%
    10:00 +16°C° 0 mm 8 m/S 753 mmHg 67%
    11:00 +16°C° 0 mm 8 m/S 754 mmHg 64%
    12:00 +17°C° 0 mm 7 m/S 754 mmHg 61%
    13:00 +17°C° 0.1 mm 8 m/S 754 mmHg 61%
    14:00 +17°C° 0.1 mm 8 m/S 753 mmHg 61%
    15:00 +17°C° 0.1 mm 9 m/S 753 mmHg 61%
    16:00 +16°C° 0 mm 8 m/S 753 mmHg 65%
    17:00 +15°C° 0 mm 7 m/S 753 mmHg 68%
    18:00 +15°C° 0 mm 6 m/S 753 mmHg 72%
    19:00 +14°C° 0.1 mm 6 m/S 753 mmHg 74%
    20:00 +14°C° 0.1 mm 6 m/S 754 mmHg 77%
    21:00 +14°C° 0.1 mm 6 m/S 754 mmHg 79%
    22:00 +13°C° 0 mm 6 m/S 754 mmHg 79%
    23:00 +13°C° 0 mm 5 m/S 753 mmHg 79%
    Mehr zeigen